Location: Montebello
(37.3256°N, 122.1789°W)
Time: 18:30:52
(UTC-07:00)

ISS - Visible Passes

Search period start: 22 April 2018 00:00
Search period end: 02 May 2018 00:00
Orbit: 403 x 406 km, 51.6° (Epoch: 23 April)

Date Brightness Start Highest point End Pass type
(mag) Time Alt. Az. Time Alt. Az. Time Alt. Az.
27 Apr -0.7 05:53:14 10° SE 05:53:46 10° SE 05:54:20 10° ESE visible
29 Apr -2.0 05:42:35 10° SSW 05:45:23 27° SE 05:48:12 10° ENE visible
30 Apr -1.2 04:51:36 10° SSE 04:53:17 13° SE 04:54:57 10° E visible
01 May -3.7 05:33:51 10° SW 05:37:06 76° SE 05:40:22 10° NE visible
